Location: Dittelspoint
(48.7198°N, 10.7214°E)
Time: 00:29:51
(UTC+00:00)

Cosmos 1455 - Pass Details

Date: 09 April 2020
Orbit: 498 x 524 km, 82.5° (Epoch: 04 June)

Event Time Altitude Azimuth Distance (km) Brightness Sun altitude
Exits shadow 19:55:53 23° 65° (ENE) 1,137 3.6 -18.1°
Drops below altitude 10° 19:58:09 10° 33° (NNE) 1,758 4.9 -18.4°
Sets 20:00:32 0° 21° (NNE) 2,656 6.0 -18.7°
